[[{"header":{"parameterUnit":"m.s-1","parameterCategory":1,"la1":30.2991,"la2":30.254,"lo1":-89.0895,"lo2":-89.0444,"dy":0.0017,"dx":0.0017,"nx":28,"ny":28,"refTime":"2024-07-07T03:00:00:Z","depth":0,"parameterNumber":2,"parameterNumberName":"U-component_of_WINDS"},"data":[0,0,0,0,0,0,0,0,0,0,0,0,0,0,0,0,0,0,0,0,0,0,0,0,0,0,0,0,0,0,0,0,0,0,0,0,0,0,0,0,0,0,0,0,0,0,0,0,0,0,0,0,0,0,0,0,0,0,-0.8161,-0.8161,0,-0.8117,-0.8116,-0.8116,-0.8101,-0.8101,-0.8102,-0.8102,-0.8055,-0.8054,-0.8052,0,0,0,0,0,0,0,0,0,0,0,0,0,-0.8234,-0.8233,-0.8161,-0.8161,-0.816,-0.8117,-0.8116,-0.8116,-0.8101,-0.8101,-0.8102,-0.8102,-0.8055,-0.8054,-0.8052,0,0,0,0,0,0,0,0,0,0,0,0,0,-0.8197,-0.8232,-0.8162,-0.8148,-0.8146,-0.8117,-0.8116,-0.8115,-0.8101,-0.8101,-0.8102,-0.8102,-0.8056,-0.8054,-0.8052,-0.8032,0,0,-0.8045,-0.8044,0,0,0,0,0,0,0,0,-0.8199,-0.8195,-0.815,-0.8149,-0.8147,-0.8115,-0.8125,-0.8088,-0.8101,-0.8118,-0.8102,-0.8102,-0.8075,-0.8071,-0.8062,-0.803,-0.8028,-0.8045,-0.8044,-0.8043,-0.8042,0,0,0,0,0,0,0,-0.8202,-0.8196,-0.8144,-0.815,-0.8148,-0.8144,-0.8139,-0.8118,-0.8095,-0.8117,-0.8116,-0.8111,-0.8074,-0.8064,-0.8061,-0.8028,-0.8045,-0.8043,-0.8042,-0.8041,-0.7978,-0.7978,0,0,0,0,0,0,-0.8207,-0.8199,-0.8145,-0.8142,-0.8174,-0.8142,-0.8137,-0.8125,-0.8095,-0.8091,-0.811,-0.811,-0.8067,-0.8063,-0.8059,-0.8034,-0.8043,-0.8041,-0.804,-0.7979,-0.7978,-0.7978,0,0,0,0,0,0,-0.8208,-0.8202,-0.8147,-0.817,-0.8163,-0.8141,-0.8127,-0.8124,-0.8114,-0.8091,-0.8086,-0.8105,-0.8068,-0.8062,-0.8039,-0.8033,-0.804,-0.8038,-0.7979,-0.7979,-0.7978,-0.7986,0,0,0,0,0,0,-0.8211,-0.8203,-0.8195,-0.817,-0.8162,-0.8128,-0.8127,-0.8123,-0.811,-0.811,-0.8084,-0.808,-0.8067,-0.8043,-0.8037,-0.803,-0.8036,-0.798,-0.7979,-0.7978,-0.7986,-0.7985,-0.7985,0,0,0,0,0,-0.8213,-0.8199,-0.8195,-0.8189,-0.8152,-0.8128,-0.8123,-0.8109,-0.811,-0.8102,-0.8087,-0.8081,-0.8034,-0.804,-0.8034,-0.8026,-0.798,-0.7979,-0.7978,-0.7986,-0.7985,-0.7985,0,0,0,0,0,0,-0.8223,-0.8195,-0.8191,-0.8168,-0.815,-0.8125,-0.8115,-0.8109,-0.809,-0.809,-0.8073,-0.8068,-0.8046,-0.8034,-0.8041,-0.8006,-0.8007,-0.8005,-0.8015,-0.8014,-0.8014,-0.8017,-0.8034,0,0,0,0,0,-0.8223,-0.8206,-0.8182,-0.8164,-0.8156,-0.8137,-0.8126,-0.8117,-0.8098,-0.8091,-0.8074,-0.8056,-0.8037,-0.8025,-0.8006,-0.7984,-0.7978,-0.7976,-0.7975,-0.7975,-0.7973,-0.7961,-0.7959,-0.7975,-0.7975,-0.7975,0,0,-0.8222,-0.8204,-0.8195,-0.8166,-0.8151,-0.8134,-0.8131,-0.8113,-0.81,-0.8088,-0.8065,-0.8053,-0.8031,-0.8009,-0.7998,-0.7998,-0.7968,-0.7974,-0.7974,-0.7972,-0.796,-0.7958,-0.7957,-0.7975,-0.7975,-0.7975,0,0,-0.8211,-0.8196,-0.818,-0.8165,-0.8144,-0.8131,-0.8128,-0.8104,-0.8095,-0.8073,-0.8063,-0.8048,-0.8016,-0.8001,-0.7989,-0.7974,-0.7967,-0.7968,-0.7966,-0.7954,-0.7953,-0.7951,-0.7946,-0.7944,-0.7967,-0.7967,-0.7967,0,-0.8212,-0.8186,-0.8172,-0.8154,-0.8142,-0.8131,-0.8114,-0.8101,-0.8074,-0.8066,-0.8066,-0.8027,-0.8011,-0.7985,-0.7982,-0.7973,-0.7968,-0.7971,-0.7954,-0.7953,-0.7951,-0.7946,-0.7944,-0.7967,-0.7967,-0.7967,-0.7967,0,-0.8189,-0.8171,-0.816,-0.8135,-0.8122,-0.8105,-0.8088,-0.8076,-0.8069,-0.8056,-0.8034,-0.8015,-0.7993,-0.7986,-0.7978,-0.7959,-0.796,-0.7957,-0.7958,-0.795,-0.7945,-0.7943,-0.7967,-0.7967,-0.7967,-0.7967,0,0,-0.8182,-0.815,-0.8146,-0.8135,-0.8111,-0.8097,-0.8079,-0.8058,-0.8048,-0.803,-0.8015,-0.7989,-0.7987,-0.7974,-0.7964,-0.7954,-0.7943,-0.7952,-0.7951,-0.7951,-0.7921,-0.7923,-0.7921,-0.7939,-0.7938,-0.7938,-0.7923,0,-0.8168,-0.8137,-0.8124,-0.8099,-0.8082,-0.8072,-0.8057,-0.804,-0.8028,-0.8012,-0.7999,-0.7981,-0.7979,-0.7971,-0.7961,-0.7946,-0.7936,-0.7947,-0.7924,-0.7923,-0.793,-0.7918,-0.792,-0.7906,-0.7921,-0.792,-0.792,0,-0.8147,-0.813,-0.8103,-0.8081,-0.8073,-0.806,-0.804,-0.8025,-0.8006,-0.7998,-0.7984,-0.7975,-0.7957,-0.7959,-0.7933,-0.7941,-0.7931,-0.7922,-0.7921,-0.7918,-0.7921,-0.7914,-0.7902,-0.79,-0.7916,-0.7917,-0.7917,0,-0.8145,-0.8115,-0.8095,-0.8086,-0.806,-0.8051,-0.8039,-0.8021,-0.8009,-0.7991,-0.7983,-0.7964,-0.7953,-0.7938,-0.7924,-0.7927,-0.7899,-0.79,-0.7892,-0.7893,-0.7887,-0.7887,-0.7872,-0.7881,-0.7881,-0.7881,-0.7881,0,-0.813,-0.8114,-0.8094,-0.8081,-0.8063,-0.8049,-0.8031,-0.8019,-0.8003,-0.7988,-0.7978,-0.7965,-0.7947,-0.7931,-0.792,-0.7901,-0.7896,-0.7889,-0.7886,-0.789,-0.789,-0.7882,-0.7883,-0.788,-0.788,-0.788,-0.788,0,-0.8125,-0.811,-0.8088,-0.8065,-0.8059,-0.8047,-0.8028,-0.8016,-0.8004,-0.7985,-0.798,-0.7961,-0.7942,-0.7927,-0.7902,-0.7894,-0.7874,-0.7871,-0.788,-0.7879,-0.7872,-0.7872,-0.785,-0.7847,-0.7858,-0.7858,-0.7858,0,-0.8116,-0.8104,-0.808,-0.807,-0.8059,-0.8042,-0.803,-0.8016,-0.8004,-0.7982,-0.7972,-0.7953,-0.7936,-0.7906,-0.789,-0.7871,-0.7867,-0.7861,-0.7864,-0.7868,-0.7867,-0.7868,-0.7866,-0.786,-0.786,-0.786,-0.786,0,-0.8103,-0.8096,-0.808,-0.8061,-0.8047,-0.8031,-0.8015,-0.8007,-0.799,-0.7977,-0.7958,-0.7945,-0.792,-0.79,-0.788,-0.7868,-0.7861,-0.7859,-0.7856,-0.786,-0.7866,-0.7862,-0.7879,-0.786,-0.786,-0.786,-0.786,-0.786,-0.8095,-0.8084,-0.8066,-0.8048,-0.8034,-0.802,-0.8007,-0.7994,-0.7978,-0.7957,-0.7949,-0.7929,-0.7911,-0.7883,-0.7871,-0.7855,-0.7854,-0.785,-0.7849,-0.7848,-0.7849,-0.7869,-0.7851,-0.7851,-0.7851,-0.7851,-0.7851,0,-0.8081,-0.8069,-0.8053,-0.8031,-0.8017,-0.8013,-0.7995,-0.7983,-0.7966,-0.795,-0.7934,-0.7912,-0.7893,-0.7876,-0.7856,-0.7847,-0.7843,-0.7842,-0.7843,-0.784,-0.785,-0.7855,-0.7846,-0.7846,-0.7846,-0.7846,-0.7846,-0.7846,-0.8072,-0.8053,-0.8044,-0.8018,-0.8006,-0.7987,-0.7977,-0.7964,-0.7951,-0.7927,-0.7911,-0.7901,-0.7884,-0.7863,-0.7846,-0.7842,-0.7835,-0.7834,-0.7829,-0.7839,-0.7839,-0.784,-0.7844,-0.7833,-0.7833,-0.782,-0.782,-0.782]},{"header":{"parameterUnit":"m.s-1","parameterCategory":1,"la1":30.2991,"la2":30.254,"lo1":-89.0895,"lo2":-89.0444,"dy":0.0017,"dx":0.0017,"nx":28,"ny":28,"refTime":"2024-07-07T03:00:00:Z","depth":0,"parameterNumber":3,"parameterNumberName":"V-component_of_WINDS"},"data":[0,0,0,0,0,0,0,0,0,0,0,0,0,0,0,0,0,0,0,0,0,0,0,0,0,0,0,0,0,0,0,0,0,0,0,0,0,0,0,0,0,0,0,0,0,0,0,0,0,0,0,0,0,0,0,0,0,0,3.7754,3.7754,0,3.7749,3.7749,3.7749,3.769,3.7689,3.7687,3.7686,3.7681,3.7682,3.7683,0,0,0,0,0,0,0,0,0,0,0,0,0,3.7713,3.7714,3.7754,3.7754,3.7753,3.7749,3.7749,3.7749,3.7691,3.7689,3.7687,3.7685,3.768,3.7682,3.7683,0,0,0,0,0,0,0,0,0,0,0,0,0,3.7721,3.7714,3.7754,3.7724,3.7721,3.7749,3.7749,3.7748,3.7691,3.7689,3.7686,3.7684,3.768,3.7682,3.7683,3.7739,0,0,3.7689,3.769,0,0,0,0,0,0,0,0,3.7721,3.7723,3.7728,3.7726,3.7723,3.7718,3.7732,3.7745,3.7691,3.7702,3.7686,3.7683,3.7695,3.7695,3.7699,3.7738,3.7738,3.7689,3.769,3.7691,3.7692,0,0,0,0,0,0,0,3.772,3.7723,3.7752,3.7729,3.7725,3.7711,3.771,3.7734,3.7711,3.7701,3.7697,3.7697,3.7693,3.7697,3.7699,3.7738,3.7689,3.7691,3.7692,3.7693,3.7823,3.7825,0,0,0,0,0,0,3.7724,3.7723,3.7752,3.7751,3.7717,3.7713,3.7712,3.7722,3.7711,3.7707,3.7699,3.7695,3.7695,3.7696,3.7698,3.7762,3.7691,3.7693,3.7694,3.7821,3.7823,3.7826,0,0,0,0,0,0,3.7723,3.7727,3.7752,3.7736,3.7738,3.7716,3.7728,3.7723,3.7727,3.7709,3.7704,3.7708,3.7694,3.7696,3.7729,3.7761,3.7694,3.7695,3.7818,3.7821,3.7825,3.7892,0,0,0,0,0,0,3.7722,3.7727,3.7748,3.7737,3.7739,3.7783,3.773,3.7724,3.7731,3.7725,3.7716,3.7713,3.7692,3.7727,3.7731,3.7763,3.7697,3.7815,3.7819,3.7824,3.7886,3.7897,3.7906,0,0,0,0,0,3.7721,3.7767,3.7749,3.7753,3.7765,3.7785,3.7786,3.7762,3.7734,3.7754,3.7743,3.7713,3.7757,3.7731,3.7735,3.7768,3.7813,3.7818,3.7823,3.7882,3.7895,3.7906,0,0,0,0,0,0,3.7782,3.7765,3.7745,3.7789,3.7789,3.7775,3.7801,3.7776,3.7784,3.7779,3.7748,3.7746,3.7785,3.7779,3.775,3.7821,3.778,3.7786,3.7823,3.7835,3.7845,3.7845,3.7698,0,0,0,0,0,3.7801,3.7819,3.7803,3.7843,3.7844,3.7823,3.7831,3.7812,3.7811,3.781,3.7801,3.7801,3.7815,3.7825,3.7836,3.7885,3.7883,3.791,3.792,3.7928,3.7934,3.796,3.7972,3.7843,3.7843,3.7843,0,0,3.7839,3.7832,3.7845,3.7855,3.7853,3.7872,3.7823,3.7846,3.786,3.7814,3.7845,3.7838,3.7836,3.7878,3.7896,3.7875,3.7969,3.7935,3.7941,3.7943,3.7967,3.7979,3.799,3.7847,3.7846,3.7846,0,0,3.7919,3.7916,3.7949,3.7948,3.7946,3.7931,3.7939,3.7929,3.7923,3.7954,3.792,3.7936,3.7961,3.7961,3.7964,3.8045,3.8018,3.805,3.8101,3.8127,3.8137,3.8146,3.8175,3.8186,3.8056,3.8056,3.8056,0,3.7968,3.7996,3.7969,3.7994,3.7999,3.7959,3.7992,3.7992,3.7994,3.7999,3.7975,3.8005,3.8001,3.8042,3.8062,3.8066,3.8074,3.8051,3.8138,3.8146,3.8154,3.8181,3.8192,3.806,3.8059,3.8059,3.8059,0,3.8055,3.8076,3.8102,3.8105,3.8114,3.8143,3.812,3.8132,3.8113,3.8101,3.8133,3.8126,3.8136,3.8145,3.8126,3.8184,3.8171,3.8143,3.8101,3.8171,3.8196,3.8206,3.8065,3.8064,3.8063,3.8062,0,0,3.8174,3.8162,3.8172,3.8173,3.8168,3.8183,3.821,3.822,3.8231,3.8233,3.8256,3.8277,3.8252,3.8256,3.8236,3.8259,3.8324,3.8228,3.8228,3.8247,3.8388,3.8409,3.8422,3.8306,3.8308,3.8309,3.8388,0,3.8251,3.8298,3.8274,3.8324,3.8342,3.8304,3.8328,3.8327,3.8317,3.8331,3.8319,3.8336,3.83,3.8302,3.8323,3.8312,3.8352,3.8306,3.8327,3.8328,3.8329,3.8435,3.8457,3.8531,3.8398,3.8399,3.84,0,3.8348,3.8355,3.8406,3.8398,3.8405,3.8427,3.8434,3.8448,3.8446,3.8437,3.8442,3.8418,3.8444,3.8403,3.8439,3.8408,3.8415,3.8411,3.8413,3.8414,3.8369,3.8439,3.8554,3.8566,3.8416,3.8414,3.8413,0,3.843,3.8452,3.8486,3.8488,3.8478,3.8495,3.8492,3.8488,3.8496,3.8502,3.8507,3.8516,3.8521,3.8529,3.8508,3.848,3.8547,3.8504,3.8541,3.8542,3.8557,3.8556,3.8676,3.8561,3.8561,3.8561,3.8561,0,3.8519,3.8552,3.8522,3.8543,3.8579,3.8552,3.8588,3.8581,3.8578,3.8597,3.8564,3.8582,3.8553,3.8568,3.8552,3.8585,3.8587,3.8581,3.8576,3.8584,3.8585,3.8589,3.8583,3.8564,3.8563,3.8563,3.8562,0,3.8617,3.8598,3.8632,3.8621,3.8619,3.8646,3.8636,3.8655,3.8642,3.8666,3.867,3.8651,3.8668,3.8647,3.8662,3.8651,3.8695,3.8683,3.8696,3.8693,3.8731,3.8728,3.8857,3.8872,3.8748,3.8749,3.875,0,3.8675,3.8699,3.8691,3.8701,3.87,3.8717,3.8725,3.8699,3.8708,3.8709,3.8728,3.8742,3.8751,3.8779,3.8767,3.8778,3.8765,3.881,3.8767,3.8774,3.8766,3.8766,3.8768,3.8819,3.882,3.8821,3.8822,0,3.8781,3.877,3.8783,3.8792,3.8803,3.8809,3.8812,3.8823,3.8796,3.8808,3.8825,3.8832,3.8847,3.8861,3.8869,3.8866,3.884,3.8836,3.8845,3.8854,3.8861,3.8858,3.872,3.8833,3.8832,3.8831,3.8831,3.883,3.8861,3.8881,3.8878,3.8893,3.8893,3.8898,3.8915,3.8905,3.8918,3.8929,3.8912,3.8934,3.8931,3.8939,3.8939,3.8955,3.8936,3.8949,3.8952,3.8956,3.8962,3.8858,3.8956,3.8956,3.8955,3.8955,3.8955,0,3.8965,3.8962,3.8976,3.8982,3.8994,3.8969,3.8971,3.8983,3.9002,3.9003,3.9013,3.9032,3.9046,3.9034,3.9046,3.9061,3.9049,3.9065,3.9064,3.9063,3.8978,3.897,3.9074,3.9074,3.9074,3.9074,3.9074,3.9074,3.9021,3.9054,3.9044,3.9076,3.9072,3.9093,3.9097,3.9101,3.9101,3.9124,3.9135,3.9128,3.9123,3.9134,3.9146,3.9142,3.9148,3.9168,3.916,3.9081,3.9069,3.9058,3.905,3.9169,3.9169,3.9243,3.9244,3.9245]}]]